• MPC Preparation (Info)

  • MPEC 2014-S20 : 2010 XX58

    The following Minor Planet Electronic Circular may be linked-to from your own Web pages, but must not otherwise be redistributed electronically.

    A form allowing access to any MPEC is at the bottom of this page.


    Read MPEC 2014-S19 Read MPEC 2014-S21


    M.P.E.C. 2014-S20                                Issued 2014 Sept. 20, 12:37 UT
    
         The Minor Planet Electronic Circulars contain information on unusual
             minor planets and routine data on comets.  They are published
       on behalf of Commission 20 of the International Astronomical Union by the
              Minor Planet Center, Smithsonian Astrophysical Observatory,
                              Cambridge, MA 02138, U.S.A.
    
                 Prepared using the Tamkin Foundation Computer Network
    
                                  MPC@CFA.HARVARD.EDU
                URL https://www.minorplanetcenter.net/    ISSN 1523-6714
    
                                       2010 XX58
    
                              Revision to MPEC 2010-X106
    
    Additional Observations:
         K10X58X  C2014 09 18.52990 02 44 58.036-25 24 10.89         19.1 iLES020F51
         K10X58X  C2014 09 18.54023 02 44 55.234-25 24 17.45         19.2 iLES020F51
         K10X58X  C2014 09 18.55060 02 44 52.438-25 24 24.11         19.1 iLES020F51
         K10X58X  C2014 09 18.56094 02 44 49.640-25 24 30.63         19.2 iLES020F51
         K10X58X KC2014 09 19.35348 02 41 19.63 -25 32 41.6          20.1 VqES020H21
         K10X58X KC2014 09 19.35831 02 41 18.37 -25 32 44.7          19.7 VqES020H21
         K10X58X KC2014 09 19.36313 02 41 17.04 -25 32 47.3                qES020H21
    
    Observer details:
    F51 Pan-STARRS 1, Haleakala.  Observers N. Primak, A. Schultz, T. Goggia,
        M. Willman.  Measurers B. Bolin, K. Chambers, S. Chastel, L. Denneau,
        H. Flewelling, M. Huber, E. Magnier, E. Schunova, R. Wainscoat, C. Waters.
        1.8-m Ritchey-Chretien + CCD.
    H21 Astronomical Research Observatory, Westfield.  Observer R. Holmes.
        Measurers L. Buzzi, S. Foglia, T. Vorobjov, T. Linder.  0.61-m f/4.0
        astrograph + CCD.
    
    First and last observations above in comparison with prediction:
    Residuals in seconds of arc (or two decimals in degrees), reference and Delta-T
    140918 F51 0.01+ 0.07-    140919 H21 0.01+ 0.07-    MPO192643   +0.10 day
    
    Orbital elements:
    2010 XX58                                                Earth MOID = 0.3092 AU
    Epoch 2014 Dec. 9.0 TT = JDT 2457000.5                  MPC
    M  46.77533              (2000.0)            P               Q
    n   0.29430719     Peri.  174.56628     -0.66728252     +0.68085934
    a   2.2383885      Node    53.14366     -0.69677182     -0.42742986
    e   0.8635182      Incl.   22.16972     -0.26314076     -0.59475565
    P   3.35           H   18.6           G   0.15           U   2
    Residuals in seconds of arc
    101212 703  0.6+  0.8+    101218 I15  0.4+  0.9-    110104 H21  0.2+  0.4+
    101212 703  0.8-  0.7+    101218 I15  0.1+  0.2-    110104 H21  0.2+  0.1+
    101212 703  0.9-  0.9+    101218 I15  0.4+  0.8-    110105 H21  0.6+  0.2+
    101212 703  0.6-  0.1+    101219 H21  0.0   0.4-    110105 H21  0.2+  0.0
    101212 703  0.3+  0.1+    101219 H21  0.3+  0.3-    110105 H21  0.3+  0.1+
    101212 703  0.6+  0.2-    101219 H21  0.1+  0.1-    110105 046  0.4+  0.1-
    101212 703  0.5-  0.9+    101219 H21  0.0   0.3-    110105 046  0.1+  0.0
    101212 703  0.4+  0.5+    101225 H15  0.1-  0.1+    110105 046  1.0-  0.4+
    101212 B90  0.3-  0.0     101225 H15  0.0   0.0     110105 046  0.3+  0.7+
    101212 B90  0.2-  0.0     101225 H15  0.1+  0.3-    110105 046  0.9-  0.3-
    101212 B90  0.2-  0.1-    101225 H15  0.3+  0.0     110105 046  1.1-  0.9+
    101212 B90  0.4-  0.0     101228 157  0.2+  0.1-    110105 046  1.2-  0.5-
    101212 A24  0.3-  0.7-    101228 157  0.4+  0.4-    110105 046  0.9-  0.0
    101212 A24  0.1-  0.1+    101230 046  0.9-  0.1+    110109 H21  0.1+  0.3-
    101212 A24  0.1-  0.3+    101230 046  0.3-  0.5-    110109 H21  0.1+  0.2-
    101212 A24  0.4+  0.1+    101230 046  0.2-  0.1-    110109 H21  0.2-  0.0
    101212 595  0.8-  0.1+    101230 046  0.8-  0.6-    110109 H21  0.2-  0.1-
    101212 595  0.1-  0.6-    101230 046  0.8-  0.4+    110109 H21  0.2+  0.1+
    101213 H01  0.0   0.1-    110101 J24 (8.2-  0.2+)   110109 H26  0.2+  0.6-
    101213 H01  0.0   0.0     110101 587  0.3+  0.1+    110109 H26  0.5+  0.1+
    101213 H01  0.1+  0.2-    110101 J24 (4.7+  0.8-)   110109 H26  0.0   0.1-
    101213 H01  0.2+  0.0     110101 587  0.1+  0.1+    110109 H26  0.3+  0.1+
    101214 204  0.1+  0.3-    110101 587  0.2+  0.1-    110109 H26  0.5+  0.3-
    101214 204  0.0   0.1-    110102 204  0.2+  0.2+    110109 H26  0.3+  0.1-
    101214 204  0.2+  0.1-    110102 204  0.2+  0.1+    110111 I15  0.0   0.3-
    101214 H20  0.3-  0.2+    110102 204  0.0   0.1+    110111 I15  0.4+  0.1+
    101214 H20  0.2-  0.0     110102 H21  0.0   0.2+    110111 I15  0.4+  0.4+
    101214 H20  0.1+  0.6+    110102 H21  0.1+  0.1+    140918 F51  0.0   0.1-
    101214 H21  0.0   0.1-    110102 H21  0.1+  0.2+    140918 F51  0.1-  0.0
    101214 H21  0.0   0.1-    110103 H21  0.1+  0.1+    140918 F51  0.1+  0.0
    101214 H21  0.1+  0.2-    110103 H21  0.0   0.2+    140918 F51  0.1+  0.1+
    101214 H21  0.2+  0.1-    110103 H21  0.0   0.3+    140919 H21  0.3-  0.1-
    101214 H21  0.2+  0.2-    110104 H21  0.1+  0.0     140919 H21  0.3+  0.4-
    101214 H21  0.1+  0.3-    110104 H21  0.2+  0.4+    140919 H21  0.1-  0.1-
    
    Ephemeris:
    2010 XX58                a,e,i = 2.24, 0.86, 22                  q = 0.3055
    Date    TT    R. A. (2000) Decl.     Delta      r     Elong.  Phase     V
    2014 08 21    04 38 51.8 -15 37 51   0.6097  1.1258    84.0    63.4    20.0
    ...
    2014 09 05    03 43 19.1 -21 41 07   0.6356  1.3558   109.0    44.7    20.0
    ...
    2014 09 13    03 09 21.8 -24 10 44   0.6634  1.4696   122.0    35.5    20.0
    ...
    2014 09 19    02 42 53.5 -25 28 56   0.6948  1.5514   130.9    29.3    20.0
    2014 09 20    02 38 28.8 -25 38 41   0.7010  1.5647   132.3    28.3    20.1
    2014 09 21    02 34 05.1 -25 47 27   0.7076  1.5780   133.7    27.4    20.1
    ...
    2014 09 27    02 08 21.8 -26 19 27   0.7536  1.6561   140.7    22.5    20.2
    ...
    2014 10 05    01 37 15.7 -26 10 58   0.8332  1.7563   146.5    18.3    20.4
    ...
    2014 10 20    00 53 31.8 -24 05 42   1.0361  1.9331   144.1    17.6    21.0
    
    A. U. Tomatic                (C) Copyright 2014 MPC           M.P.E.C. 2014-S20
    

    Read MPEC 2014-S19 Read MPEC 2014-S21


    MPEC number:

    Enter an MPEC number in one of the following forms:

    • 1997-B01 (the full form)
    • J97B01 (the packed version of the full form)
    • B01 (the abbreviated form)